Year,Month,Day,Hour,Minute,Value (Times are PST for temperature in C)
2010,01,25,00,00,6.70
2010,01,25,00,01,6.70
2010,01,25,00,02,6.70
2010,01,25,00,03,6.80
2010,01,25,00,04,6.80
2010,01,25,00,05,6.80
2010,01,25,00,06,6.80
2010,01,25,00,07,6.80
2010,01,25,00,08,6.80
2010,01,25,00,09,6.80
2010,01,25,00,10,6.80
2010,01,25,00,11,6.80
2010,01,25,00,12,6.80
2010,01,25,00,13,6.80
2010,01,25,00,14,6.90
2010,01,25,00,15,6.90
2010,01,25,00,16,6.90
2010,01,25,00,17,6.90
2010,01,25,00,18,6.90
2010,01,25,00,19,6.90
2010,01,25,00,20,6.90
2010,01,25,00,21,6.90
2010,01,25,00,22,6.90
2010,01,25,00,23,6.90
2010,01,25,00,24,6.90
2010,01,25,00,25,6.90
2010,01,25,00,26,6.90
2010,01,25,00,27,6.80
2010,01,25,00,28,6.80
2010,01,25,00,29,6.80
2010,01,25,00,30,6.80
2010,01,25,00,31,6.80
2010,01,25,00,32,6.80
2010,01,25,00,33,6.80
2010,01,25,00,34,6.80
2010,01,25,00,35,6.80
2010,01,25,00,36,6.80
2010,01,25,00,37,6.80
2010,01,25,00,38,6.80
2010,01,25,00,39,6.80
2010,01,25,00,40,6.80
2010,01,25,00,41,6.80
2010,01,25,00,42,6.80
2010,01,25,00,43,6.80
2010,01,25,00,44,6.80
2010,01,25,00,45,6.80
2010,01,25,00,46,6.70
2010,01,25,00,47,6.80
2010,01,25,00,48,6.70
2010,01,25,00,49,6.70
2010,01,25,00,50,6.70
2010,01,25,00,51,6.70
2010,01,25,00,52,6.80
2010,01,25,00,53,6.80
2010,01,25,00,54,6.80
2010,01,25,00,55,6.80
2010,01,25,00,56,6.80
2010,01,25,00,57,6.80
2010,01,25,00,58,6.80
2010,01,25,00,59,6.70
2010,01,25,01,00,6.70
2010,01,25,01,01,6.70
2010,01,25,01,02,6.70
2010,01,25,01,03,6.70
2010,01,25,01,04,6.70
2010,01,25,01,05,6.70
2010,01,25,01,06,6.70
2010,01,25,01,07,6.70
2010,01,25,01,08,6.70
2010,01,25,01,09,6.70
2010,01,25,01,10,6.70
2010,01,25,01,11,6.70
2010,01,25,01,12,6.60
2010,01,25,01,13,6.60
2010,01,25,01,14,6.60
2010,01,25,01,15,6.60
2010,01,25,01,16,6.60
2010,01,25,01,17,6.60
2010,01,25,01,18,6.60
2010,01,25,01,19,6.60
2010,01,25,01,20,6.60
2010,01,25,01,21,6.60
2010,01,25,01,22,6.70
2010,01,25,01,23,6.70
2010,01,25,01,24,6.70
2010,01,25,01,25,6.70
2010,01,25,01,26,6.70
2010,01,25,01,27,6.70
2010,01,25,01,28,6.70
2010,01,25,01,29,6.80
2010,01,25,01,30,6.80
2010,01,25,01,31,6.80
2010,01,25,01,32,6.80
2010,01,25,01,33,6.80
2010,01,25,01,34,6.80
2010,01,25,01,35,6.80
2010,01,25,01,36,6.80
2010,01,25,01,37,6.90
2010,01,25,01,38,6.90
2010,01,25,01,39,6.90
2010,01,25,01,40,6.90
2010,01,25,01,41,7.00
2010,01,25,01,42,7.00
2010,01,25,01,43,7.00
2010,01,25,01,44,7.00
2010,01,25,01,45,7.00
2010,01,25,01,46,7.10
2010,01,25,01,47,7.10
2010,01,25,01,48,7.10
2010,01,25,01,49,7.10
2010,01,25,01,50,7.10
2010,01,25,01,51,7.10
2010,01,25,01,52,7.10
2010,01,25,01,53,7.10
2010,01,25,01,54,7.10
2010,01,25,01,55,7.10
2010,01,25,01,56,7.10
2010,01,25,01,57,7.10
2010,01,25,01,58,7.10
2010,01,25,01,59,7.10
2010,01,25,02,00,7.10
2010,01,25,02,01,7.10
2010,01,25,02,02,7.10
2010,01,25,02,03,7.10
2010,01,25,02,04,7.10
2010,01,25,02,05,7.10
2010,01,25,02,06,7.10
2010,01,25,02,07,7.10
2010,01,25,02,08,7.10
2010,01,25,02,09,7.10
2010,01,25,02,10,7.10
2010,01,25,02,11,7.10
2010,01,25,02,12,7.10
2010,01,25,02,13,7.10
2010,01,25,02,14,7.10
2010,01,25,02,15,7.20
2010,01,25,02,16,7.20
2010,01,25,02,17,7.20
2010,01,25,02,18,7.20
2010,01,25,02,19,7.10
2010,01,25,02,20,7.10
2010,01,25,02,21,7.10
2010,01,25,02,22,7.10
2010,01,25,02,23,7.10
2010,01,25,02,24,7.10
2010,01,25,02,25,7.10
2010,01,25,02,26,7.10
2010,01,25,02,27,7.00
2010,01,25,02,28,7.00
2010,01,25,02,29,7.00
2010,01,25,02,30,7.00
2010,01,25,02,31,7.00
2010,01,25,02,32,7.00
2010,01,25,02,33,7.00
2010,01,25,02,34,6.90
2010,01,25,02,35,6.90
2010,01,25,02,36,6.90
2010,01,25,02,37,6.90
2010,01,25,02,38,6.90
2010,01,25,02,39,6.90
2010,01,25,02,40,6.90
2010,01,25,02,41,6.90
2010,01,25,02,42,6.90
2010,01,25,02,43,6.90
2010,01,25,02,44,6.90
2010,01,25,02,45,6.90
2010,01,25,02,46,6.80
2010,01,25,02,47,6.80
2010,01,25,02,48,6.80
2010,01,25,02,49,6.80
2010,01,25,02,50,6.80
2010,01,25,02,51,6.80
2010,01,25,02,52,6.80
2010,01,25,02,53,6.80
2010,01,25,02,54,6.80
2010,01,25,02,55,6.80
2010,01,25,02,56,6.80
2010,01,25,02,57,6.80
2010,01,25,02,58,6.80
2010,01,25,02,59,6.80
2010,01,25,03,00,6.80
2010,01,25,03,01,6.80
2010,01,25,03,02,6.80
2010,01,25,03,03,6.80
2010,01,25,03,04,6.80
2010,01,25,03,05,6.80
2010,01,25,03,06,6.80
2010,01,25,03,07,6.80
2010,01,25,03,08,6.80
2010,01,25,03,09,6.80
2010,01,25,03,10,6.90
2010,01,25,03,11,6.90
2010,01,25,03,12,6.90
2010,01,25,03,13,6.90
2010,01,25,03,14,6.90
2010,01,25,03,15,6.90
2010,01,25,03,16,6.90
2010,01,25,03,17,6.90
2010,01,25,03,18,6.90
2010,01,25,03,19,6.90
2010,01,25,03,20,6.90
2010,01,25,03,21,6.90
2010,01,25,03,22,6.90
2010,01,25,03,23,6.90
2010,01,25,03,24,6.90
2010,01,25,03,25,6.90
2010,01,25,03,26,6.90
2010,01,25,03,27,6.90
2010,01,25,03,28,6.90
2010,01,25,03,29,6.90
2010,01,25,03,30,6.90
2010,01,25,03,31,6.90
2010,01,25,03,32,6.80
2010,01,25,03,33,6.80
2010,01,25,03,34,6.80
2010,01,25,03,35,6.80
2010,01,25,03,36,6.90
2010,01,25,03,37,6.90
2010,01,25,03,38,6.90
2010,01,25,03,39,6.90
2010,01,25,03,40,6.90
2010,01,25,03,41,6.90
2010,01,25,03,42,6.90
2010,01,25,03,43,6.90
2010,01,25,03,44,6.90
2010,01,25,03,45,6.90
2010,01,25,03,46,6.90
2010,01,25,03,47,6.90
2010,01,25,03,48,6.90
2010,01,25,03,49,6.90
2010,01,25,03,50,6.90
2010,01,25,03,51,6.90
2010,01,25,03,52,6.90
2010,01,25,03,53,6.90
2010,01,25,03,54,6.90
2010,01,25,03,55,6.90
2010,01,25,03,56,6.90
2010,01,25,03,57,6.90
2010,01,25,03,58,6.90
2010,01,25,03,59,6.90
2010,01,25,08,30,7.60
2010,01,25,08,31,7.60
2010,01,25,08,32,7.60
2010,01,25,08,33,7.60
2010,01,25,08,34,7.60
2010,01,25,08,35,7.60
2010,01,25,08,36,7.60
2010,01,25,08,37,7.60
2010,01,25,08,38,7.60
2010,01,25,08,39,7.60
2010,01,25,08,40,7.60
2010,01,25,08,41,7.60
2010,01,25,08,42,7.60
2010,01,25,08,43,7.60
2010,01,25,08,44,7.60
2010,01,25,08,45,7.60
2010,01,25,08,46,7.60
2010,01,25,08,47,7.60
2010,01,25,08,48,7.60
2010,01,25,08,49,7.70
2010,01,25,08,50,7.70
2010,01,25,08,51,7.70
2010,01,25,08,52,7.70
2010,01,25,08,53,7.70
2010,01,25,08,54,7.70
2010,01,25,08,55,7.70
2010,01,25,08,56,7.70
2010,01,25,08,57,7.70
2010,01,25,08,58,7.70
2010,01,25,08,59,7.70
2010,01,25,09,00,7.70
2010,01,25,09,01,7.70
2010,01,25,09,02,7.70
2010,01,25,09,03,7.70
2010,01,25,09,04,7.70
2010,01,25,09,05,7.70
2010,01,25,09,06,7.70
2010,01,25,09,07,7.70
2010,01,25,09,08,7.70
2010,01,25,09,09,7.70
2010,01,25,09,10,7.70
2010,01,25,09,11,7.70
2010,01,25,09,12,7.80
2010,01,25,09,13,7.80
2010,01,25,09,14,7.80
2010,01,25,09,15,7.80
2010,01,25,09,16,7.80
2010,01,25,09,17,7.80
2010,01,25,09,18,7.80
2010,01,25,09,19,7.80
2010,01,25,09,20,7.80
2010,01,25,09,21,7.80
2010,01,25,09,22,7.80
2010,01,25,09,23,7.80
2010,01,25,09,24,7.80
2010,01,25,09,25,7.80
2010,01,25,09,26,7.80
2010,01,25,09,27,7.90
2010,01,25,09,28,7.90
2010,01,25,09,29,8.00
2010,01,25,09,30,8.00
2010,01,25,09,31,8.00
2010,01,25,09,32,8.10
2010,01,25,09,33,8.10
2010,01,25,09,34,8.10
2010,01,25,09,35,8.10
2010,01,25,09,36,8.10
2010,01,25,09,37,8.10
2010,01,25,09,38,8.20
2010,01,25,09,39,8.20
2010,01,25,09,40,8.20
2010,01,25,09,41,8.20
2010,01,25,09,42,8.20
2010,01,25,09,43,8.20
2010,01,25,09,44,8.20
2010,01,25,09,45,8.20
2010,01,25,09,46,8.20
2010,01,25,09,47,8.20
2010,01,25,09,48,8.20
2010,01,25,09,49,8.30
2010,01,25,09,50,8.30
2010,01,25,09,51,8.30
2010,01,25,09,52,8.40
2010,01,25,09,53,8.40
2010,01,25,09,54,8.40
2010,01,25,09,55,8.50
2010,01,25,09,56,8.60
2010,01,25,09,57,8.60
2010,01,25,09,58,8.70
2010,01,25,09,59,8.70
2010,01,25,10,00,8.70
2010,01,25,10,01,8.70
2010,01,25,10,02,8.80
2010,01,25,10,03,8.80
2010,01,25,10,04,8.80
2010,01,25,10,05,8.90
2010,01,25,10,06,8.90
2010,01,25,10,07,8.80
2010,01,25,10,08,8.80
2010,01,25,10,09,8.80
2010,01,25,10,10,8.70
2010,01,25,10,11,8.70
2010,01,25,10,12,8.70
2010,01,25,10,13,8.70
2010,01,25,10,14,8.70
2010,01,25,10,15,8.70
2010,01,25,10,16,8.70
2010,01,25,10,17,8.70
2010,01,25,10,18,8.80
2010,01,25,10,19,8.70
2010,01,25,10,20,8.70
2010,01,25,10,21,8.60
2010,01,25,10,22,8.60
2010,01,25,10,23,8.60
2010,01,25,10,24,8.60
2010,01,25,10,25,8.70
2010,01,25,10,26,8.70
2010,01,25,10,27,8.70
2010,01,25,10,28,8.70
2010,01,25,10,29,8.70
2010,01,25,10,30,8.60
2010,01,25,10,31,8.60
2010,01,25,10,32,8.50
2010,01,25,10,33,8.50
2010,01,25,10,34,8.50
2010,01,25,10,35,8.50
2010,01,25,10,36,8.50
2010,01,25,10,37,8.60
2010,01,25,10,38,8.70
2010,01,25,10,39,8.70
2010,01,25,10,40,8.80
2010,01,25,10,41,8.80
2010,01,25,10,42,8.90
2010,01,25,10,43,9.00
2010,01,25,10,44,9.00
2010,01,25,10,45,8.90
2010,01,25,10,46,8.90
2010,01,25,10,47,8.90
2010,01,25,10,48,8.80
2010,01,25,10,49,8.70
2010,01,25,10,50,8.70
2010,01,25,10,51,8.70
2010,01,25,10,52,8.80
2010,01,25,10,53,8.80
2010,01,25,10,54,8.70
2010,01,25,10,55,8.70
2010,01,25,10,56,8.80
2010,01,25,10,57,8.80
2010,01,25,10,58,8.80
2010,01,25,10,59,8.90
2010,01,25,11,00,9.00
2010,01,25,11,01,9.00
2010,01,25,11,02,9.10
2010,01,25,11,03,9.20
2010,01,25,11,04,9.20
2010,01,25,11,05,9.20
2010,01,25,11,06,9.20
2010,01,25,11,07,9.10
2010,01,25,11,08,9.00
2010,01,25,11,09,8.90
2010,01,25,11,10,8.90
2010,01,25,11,11,8.90
2010,01,25,11,12,8.90
2010,01,25,11,13,9.00
2010,01,25,11,14,8.90
2010,01,25,11,15,8.90
2010,01,25,11,16,8.80
2010,01,25,11,17,8.80
2010,01,25,11,18,8.80
2010,01,25,11,19,8.80
2010,01,25,11,20,8.80
2010,01,25,11,21,8.70
2010,01,25,11,22,8.70
2010,01,25,11,23,8.70
2010,01,25,11,24,8.70
2010,01,25,11,25,8.70
2010,01,25,11,26,8.70
2010,01,25,11,27,8.70
2010,01,25,11,28,8.70
2010,01,25,11,29,8.70
2010,01,25,11,30,8.70
2010,01,25,11,31,8.80
2010,01,25,11,32,8.80
2010,01,25,11,33,8.90
2010,01,25,11,34,8.90
2010,01,25,11,35,8.90
2010,01,25,11,36,8.90
2010,01,25,11,37,9.00
2010,01,25,11,38,9.00
2010,01,25,11,39,9.00
2010,01,25,11,40,9.10
2010,01,25,11,41,9.10
2010,01,25,11,42,9.20
2010,01,25,11,43,9.20
2010,01,25,11,44,9.20
2010,01,25,11,45,9.20
2010,01,25,11,46,9.20
2010,01,25,11,47,9.20
2010,01,25,11,48,9.20
2010,01,25,11,49,9.20
2010,01,25,11,50,9.20
2010,01,25,11,51,9.20
2010,01,25,11,52,9.20
2010,01,25,11,53,9.20
2010,01,25,11,54,9.20
2010,01,25,11,55,9.20
2010,01,25,11,56,9.20
2010,01,25,11,57,9.20
2010,01,25,11,58,9.20
2010,01,25,11,59,9.20
2010,01,25,12,00,9.20
2010,01,25,12,01,9.20
2010,01,25,12,02,9.20
2010,01,25,12,03,9.30
2010,01,25,12,04,9.40
2010,01,25,12,05,9.40
2010,01,25,12,06,9.50
2010,01,25,12,07,9.50
2010,01,25,12,08,9.60
2010,01,25,12,09,9.60
2010,01,25,12,10,9.70
2010,01,25,12,11,9.70
2010,01,25,12,12,9.70
2010,01,25,12,13,9.70
2010,01,25,12,14,9.70
2010,01,25,12,15,9.80
2010,01,25,12,16,9.80
2010,01,25,12,17,9.80
2010,01,25,12,18,9.80
2010,01,25,12,19,9.80
2010,01,25,12,20,9.80
2010,01,25,12,21,9.70
2010,01,25,12,22,9.70
2010,01,25,12,23,9.50
2010,01,25,12,24,9.50
2010,01,25,12,25,9.40
2010,01,25,12,26,9.40
2010,01,25,12,27,9.40
2010,01,25,12,28,9.40
2010,01,25,12,29,9.40
2010,01,25,12,30,9.40
2010,01,25,12,31,9.40
2010,01,25,12,32,9.30
2010,01,25,12,33,9.30
2010,01,25,12,34,9.30
2010,01,25,12,35,9.30
2010,01,25,12,36,9.30
2010,01,25,12,37,9.30
2010,01,25,12,38,9.30
2010,01,25,12,39,9.30
2010,01,25,12,40,9.30
2010,01,25,12,41,9.30
2010,01,25,12,42,9.30
2010,01,25,12,43,9.40
2010,01,25,12,44,9.40
2010,01,25,12,45,9.40
2010,01,25,12,46,9.40
2010,01,25,12,47,9.40
2010,01,25,12,48,9.50
2010,01,25,12,49,9.50
2010,01,25,12,50,9.60
2010,01,25,12,51,9.50
2010,01,25,12,52,9.50
2010,01,25,12,53,9.40
2010,01,25,12,54,9.30
2010,01,25,12,55,9.40
2010,01,25,12,56,9.40
2010,01,25,12,57,9.50
2010,01,25,12,58,9.50
2010,01,25,12,59,9.50
2010,01,25,13,00,9.50
2010,01,25,13,01,9.50
2010,01,25,13,02,9.50
2010,01,25,13,03,9.50
2010,01,25,13,04,9.50
2010,01,25,13,05,9.50
2010,01,25,13,06,9.50
2010,01,25,13,07,9.50
2010,01,25,13,08,9.40
2010,01,25,13,09,9.30
2010,01,25,13,10,9.30
2010,01,25,13,11,9.20
2010,01,25,13,12,9.20
2010,01,25,13,13,9.20
2010,01,25,13,14,9.20
2010,01,25,13,15,9.20
2010,01,25,13,16,9.20
2010,01,25,13,17,9.20
2010,01,25,13,18,9.20
2010,01,25,13,19,9.20
2010,01,25,13,20,9.20
2010,01,25,13,21,9.20
2010,01,25,13,22,9.20
2010,01,25,13,23,9.20
2010,01,25,13,24,9.20
2010,01,25,13,25,9.20
2010,01,25,13,26,9.10
2010,01,25,13,27,9.10
2010,01,25,13,28,9.20
2010,01,25,13,29,9.20
2010,01,25,13,30,9.20
2010,01,25,13,31,9.20
2010,01,25,13,32,9.20
2010,01,25,13,33,9.30
2010,01,25,13,34,9.30
2010,01,25,13,35,9.40
2010,01,25,13,36,9.40
2010,01,25,13,37,9.50
2010,01,25,13,38,9.60
2010,01,25,13,39,9.70
2010,01,25,13,40,9.70
2010,01,25,13,41,9.70
2010,01,25,13,42,9.70
2010,01,25,13,43,9.70
2010,01,25,13,44,9.80
2010,01,25,13,45,9.80
2010,01,25,13,46,9.90
2010,01,25,13,47,9.90
2010,01,25,13,48,9.90
2010,01,25,13,49,9.90
2010,01,25,13,50,9.90
2010,01,25,13,51,9.90
2010,01,25,13,52,9.90
2010,01,25,13,53,9.90
2010,01,25,13,54,10.10
2010,01,25,13,55,10.10
2010,01,25,13,56,10.10
2010,01,25,13,57,10.10
2010,01,25,13,58,10.10
2010,01,25,13,59,10.10
2010,01,25,14,00,10.10
2010,01,25,14,01,10.00
2010,01,25,14,02,10.00
2010,01,25,14,03,10.10
2010,01,25,14,04,10.10
2010,01,25,14,05,10.10
2010,01,25,14,06,10.10
2010,01,25,14,07,10.10
2010,01,25,14,08,10.10
2010,01,25,14,09,10.20
2010,01,25,14,10,10.20
2010,01,25,14,11,10.30
2010,01,25,14,12,10.30
2010,01,25,14,13,10.40
2010,01,25,14,14,10.40
2010,01,25,14,15,10.30
2010,01,25,14,16,10.20
2010,01,25,14,17,10.20
2010,01,25,14,18,10.10
2010,01,25,14,19,10.10
2010,01,25,14,20,10.00
2010,01,25,14,21,9.90
2010,01,25,14,22,9.80
2010,01,25,14,23,9.70
2010,01,25,14,24,9.70
2010,01,25,14,25,9.70
2010,01,25,14,26,9.60
2010,01,25,14,27,9.60
2010,01,25,14,28,9.60
2010,01,25,14,29,9.50
2010,01,25,14,30,9.50
2010,01,25,14,31,9.40
2010,01,25,14,32,9.30
2010,01,25,14,33,9.30
2010,01,25,14,34,9.30
2010,01,25,14,35,9.30
2010,01,25,14,36,9.30
2010,01,25,14,37,9.30
2010,01,25,14,38,9.30
2010,01,25,14,39,9.20
2010,01,25,14,40,9.20
2010,01,25,14,41,9.20
2010,01,25,14,42,9.20
2010,01,25,14,43,9.20
2010,01,25,14,44,9.10
2010,01,25,14,45,9.10
2010,01,25,14,46,9.10
2010,01,25,14,47,9.10
2010,01,25,14,48,9.10
2010,01,25,14,49,9.10
2010,01,25,14,50,9.10
2010,01,25,14,51,9.10
2010,01,25,14,52,9.10
2010,01,25,14,53,9.10
2010,01,25,14,54,9.10
2010,01,25,14,55,9.10
2010,01,25,14,56,9.10
2010,01,25,14,57,9.10
2010,01,25,14,58,9.00
2010,01,25,14,59,9.00
2010,01,25,15,00,9.00
2010,01,25,15,01,9.00
2010,01,25,15,02,9.00
2010,01,25,15,03,9.00
2010,01,25,15,04,9.00
2010,01,25,15,05,9.00
2010,01,25,15,06,9.10
2010,01,25,15,07,9.00
2010,01,25,15,08,9.00
2010,01,25,15,09,9.00
2010,01,25,15,10,9.00
2010,01,25,15,11,9.00
2010,01,25,15,12,9.00
2010,01,25,15,13,9.00
2010,01,25,15,14,9.10
2010,01,25,15,15,9.10
2010,01,25,15,16,9.10
2010,01,25,15,17,9.10
2010,01,25,15,18,9.00
2010,01,25,15,19,9.00
2010,01,25,15,20,8.90
2010,01,25,15,21,8.90
2010,01,25,15,22,8.90
2010,01,25,15,23,8.90
2010,01,25,15,24,8.80
2010,01,25,15,25,8.90
2010,01,25,15,26,8.90
2010,01,25,15,27,8.90
2010,01,25,15,28,8.90
2010,01,25,15,29,8.90
2010,01,25,15,30,8.90
2010,01,25,15,31,8.90
2010,01,25,15,32,8.90
2010,01,25,15,33,8.90
2010,01,25,15,34,8.90
2010,01,25,15,35,8.90
2010,01,25,15,36,8.90
2010,01,25,15,37,8.90
2010,01,25,15,38,8.90
2010,01,25,15,39,8.90
2010,01,25,15,40,8.90
2010,01,25,15,41,8.90
2010,01,25,15,42,8.90
2010,01,25,15,43,8.80
2010,01,25,15,44,8.80
2010,01,25,15,45,8.80
2010,01,25,15,46,8.80
2010,01,25,15,47,8.80
2010,01,25,15,48,8.80
2010,01,25,15,49,8.80
2010,01,25,15,50,8.80
2010,01,25,15,51,8.80
2010,01,25,15,52,8.80
2010,01,25,15,53,8.70
2010,01,25,15,54,8.80
2010,01,25,15,55,8.80
2010,01,25,15,56,8.80
2010,01,25,15,57,8.80
2010,01,25,15,58,8.80
2010,01,25,15,59,8.90
2010,01,25,16,00,8.90
2010,01,25,16,01,8.90
2010,01,25,16,02,8.90
2010,01,25,16,03,8.90
2010,01,25,16,04,8.90
2010,01,25,16,05,8.90
2010,01,25,16,06,8.90
2010,01,25,16,07,8.90
2010,01,25,16,08,8.80
2010,01,25,16,09,8.80
2010,01,25,16,10,8.70
2010,01,25,16,11,8.70
2010,01,25,16,12,8.70
2010,01,25,16,13,8.70
2010,01,25,16,14,8.70
2010,01,25,16,15,8.60
2010,01,25,16,16,8.60
2010,01,25,16,17,8.60
2010,01,25,16,18,8.60
2010,01,25,16,19,8.60
2010,01,25,16,20,8.60
2010,01,25,16,21,8.60
2010,01,25,16,22,8.60
2010,01,25,16,23,8.60
2010,01,25,16,24,8.60
2010,01,25,16,25,8.60
2010,01,25,16,26,8.60
2010,01,25,16,27,8.60
2010,01,25,16,28,8.60
2010,01,25,16,29,8.60
2010,01,25,16,30,8.60
2010,01,25,16,31,8.50
2010,01,25,16,32,8.50
2010,01,25,16,33,8.50
2010,01,25,16,34,8.50
2010,01,25,16,35,8.50
2010,01,25,16,36,8.50
2010,01,25,16,37,8.50
2010,01,25,16,38,8.50
2010,01,25,16,39,8.50
2010,01,25,16,40,8.50
2010,01,25,16,41,8.50
2010,01,25,16,42,8.50
2010,01,25,16,43,8.50
2010,01,25,16,44,8.40
2010,01,25,16,45,8.40
2010,01,25,16,46,8.40
2010,01,25,16,47,8.40
2010,01,25,16,48,8.40
2010,01,25,16,49,8.30
2010,01,25,16,50,8.30
2010,01,25,16,51,8.30
2010,01,25,16,52,8.30
2010,01,25,16,53,8.30
2010,01,25,16,54,8.30
2010,01,25,16,55,8.30
2010,01,25,16,56,8.30
2010,01,25,16,57,8.20
2010,01,25,16,58,8.20
2010,01,25,16,59,8.20
2010,01,25,17,00,8.20
2010,01,25,17,01,8.20
2010,01,25,17,02,8.20
2010,01,25,17,03,8.20
2010,01,25,17,04,8.20
2010,01,25,17,05,8.20
2010,01,25,17,06,8.20
2010,01,25,17,07,8.20
2010,01,25,17,08,8.20
2010,01,25,17,09,8.20
2010,01,25,17,10,8.20
2010,01,25,17,11,8.20
2010,01,25,17,12,8.20
2010,01,25,17,13,8.20
2010,01,25,17,14,8.20
2010,01,25,17,15,8.20
2010,01,25,17,16,8.20
2010,01,25,17,17,8.20
2010,01,25,17,18,8.20
2010,01,25,17,19,8.20
2010,01,25,17,20,8.10
2010,01,25,17,21,8.10
2010,01,25,17,22,8.10
2010,01,25,17,23,8.10
2010,01,25,17,24,8.10
2010,01,25,17,25,8.10
2010,01,25,17,26,8.10
2010,01,25,17,27,8.10
2010,01,25,17,28,8.10
2010,01,25,17,29,8.10
2010,01,25,17,30,8.10
2010,01,25,17,31,8.10
2010,01,25,17,32,8.10
2010,01,25,17,33,8.10
2010,01,25,17,34,8.10
2010,01,25,17,35,8.10
2010,01,25,17,36,8.10
2010,01,25,17,37,8.10
2010,01,25,17,38,8.10
2010,01,25,17,39,8.10
2010,01,25,17,40,8.10
2010,01,25,17,41,8.10
2010,01,25,17,42,8.10
2010,01,25,17,43,8.10
2010,01,25,17,44,8.10
2010,01,25,17,45,8.10
2010,01,25,17,46,8.10
2010,01,25,17,47,8.10
2010,01,25,17,48,8.10
2010,01,25,17,49,8.10
2010,01,25,17,50,8.10
2010,01,25,17,51,8.00
2010,01,25,17,52,8.00
2010,01,25,17,53,8.00
2010,01,25,17,54,8.00
2010,01,25,17,55,8.00
2010,01,25,17,56,8.00
2010,01,25,17,57,8.00
2010,01,25,17,58,8.00
2010,01,25,17,59,7.90
2010,01,25,18,00,7.90
2010,01,25,18,01,7.90
2010,01,25,18,02,7.90
2010,01,25,18,03,7.90
2010,01,25,18,04,7.90
2010,01,25,18,05,7.90
2010,01,25,18,06,7.90
2010,01,25,18,07,7.90
2010,01,25,18,08,7.90
2010,01,25,18,09,8.00
2010,01,25,18,10,8.00
2010,01,25,18,11,8.00
2010,01,25,18,12,8.00
2010,01,25,18,13,8.00
2010,01,25,18,14,8.00
2010,01,25,18,15,8.00
2010,01,25,18,16,7.90
2010,01,25,18,17,7.90
2010,01,25,18,18,7.90
2010,01,25,18,19,7.90
2010,01,25,18,20,7.90
2010,01,25,18,21,7.80
2010,01,25,18,22,7.80
2010,01,25,18,23,7.80
2010,01,25,18,24,7.80
2010,01,25,18,25,7.80
2010,01,25,18,26,7.80
2010,01,25,18,27,7.80
2010,01,25,18,28,7.80
2010,01,25,18,29,7.80
2010,01,25,18,30,7.80
2010,01,25,18,31,7.80
2010,01,25,18,32,7.80
2010,01,25,18,33,7.80
2010,01,25,18,34,7.80
2010,01,25,18,35,7.80
2010,01,25,18,36,7.80
2010,01,25,18,37,7.80
2010,01,25,18,38,7.80
2010,01,25,18,39,7.80
2010,01,25,18,40,7.80
2010,01,25,18,41,7.80
2010,01,25,18,42,7.80
2010,01,25,18,43,7.80
2010,01,25,18,44,7.80
2010,01,25,18,45,7.80
2010,01,25,18,46,7.80
2010,01,25,18,47,7.80
2010,01,25,18,48,7.80
2010,01,25,18,49,7.80
2010,01,25,18,50,7.80
2010,01,25,18,51,7.80
2010,01,25,18,52,7.80
2010,01,25,18,53,7.80
2010,01,25,18,54,7.80
2010,01,25,18,55,7.80
2010,01,25,18,56,7.80
2010,01,25,18,57,7.80
2010,01,25,18,58,7.80
2010,01,25,18,59,7.80
2010,01,25,19,00,7.80
2010,01,25,19,01,7.80
2010,01,25,19,02,7.80
2010,01,25,19,03,7.80
2010,01,25,19,04,7.80
2010,01,25,19,05,7.80
2010,01,25,19,06,7.80
2010,01,25,19,07,7.80
2010,01,25,19,08,7.80
2010,01,25,19,09,7.80
2010,01,25,19,10,7.80
2010,01,25,19,11,7.80
2010,01,25,19,12,7.70
2010,01,25,19,13,7.70
2010,01,25,19,14,7.70
2010,01,25,19,15,7.70
2010,01,25,19,16,7.70
2010,01,25,19,17,7.70
2010,01,25,19,18,7.70
2010,01,25,19,19,7.70
2010,01,25,19,20,7.70
2010,01,25,19,21,7.70
2010,01,25,19,22,7.70
2010,01,25,19,23,7.70
2010,01,25,19,24,7.70
2010,01,25,19,25,7.70
2010,01,25,19,26,7.70
2010,01,25,19,27,7.70
2010,01,25,19,28,7.70
2010,01,25,19,29,7.60
2010,01,25,19,30,7.60
2010,01,25,19,31,7.60
2010,01,25,19,32,7.60
2010,01,25,19,33,7.60
2010,01,25,19,34,7.60
2010,01,25,19,35,7.50
2010,01,25,19,36,7.50
2010,01,25,19,37,7.50
2010,01,25,19,38,7.50
2010,01,25,19,39,7.40
2010,01,25,19,40,7.40
2010,01,25,19,41,7.40
2010,01,25,19,42,7.40
2010,01,25,19,43,7.40
2010,01,25,19,44,7.40
2010,01,25,19,45,7.30
2010,01,25,19,46,7.30
2010,01,25,19,47,7.30
2010,01,25,19,48,7.30
2010,01,25,19,49,7.30
2010,01,25,19,50,7.30
2010,01,25,19,51,7.30
2010,01,25,19,52,7.30
2010,01,25,19,53,7.30
2010,01,25,19,54,7.30
2010,01,25,19,55,7.30
2010,01,25,19,56,7.30
2010,01,25,19,57,7.30
2010,01,25,19,58,7.30
2010,01,25,19,59,7.30
2010,01,25,20,00,7.30
2010,01,25,20,01,7.30
2010,01,25,20,02,7.30
2010,01,25,20,03,7.30
2010,01,25,20,04,7.30
2010,01,25,20,05,7.30
2010,01,25,20,06,7.30
2010,01,25,20,07,7.30
2010,01,25,20,08,7.30
2010,01,25,20,09,7.40
2010,01,25,20,10,7.40
2010,01,25,20,11,7.40
2010,01,25,20,12,7.40
2010,01,25,20,13,7.50
2010,01,25,20,14,7.50
2010,01,25,20,15,7.50
2010,01,25,20,16,7.50
2010,01,25,20,17,7.50
2010,01,25,20,18,7.50
2010,01,25,20,19,7.50
2010,01,25,20,20,7.50
2010,01,25,20,21,7.50
2010,01,25,20,22,7.50
2010,01,25,20,23,7.50
2010,01,25,20,24,7.50
2010,01,25,20,25,7.50
2010,01,25,20,26,7.50
2010,01,25,20,27,7.50
2010,01,25,20,28,7.50
2010,01,25,20,29,7.50
2010,01,25,20,30,7.50
2010,01,25,20,31,7.50
2010,01,25,20,32,7.50
2010,01,25,20,33,7.50
2010,01,25,20,34,7.50
2010,01,25,20,35,7.50
2010,01,25,20,36,7.50
2010,01,25,20,37,7.50
2010,01,25,20,38,7.50
2010,01,25,20,39,7.50
2010,01,25,20,40,7.40
2010,01,25,20,41,7.40
2010,01,25,20,42,7.40
2010,01,25,20,43,7.40
2010,01,25,20,44,7.40
2010,01,25,20,45,7.30
2010,01,25,20,46,7.30
2010,01,25,20,47,7.30
2010,01,25,20,48,7.30
2010,01,25,20,49,7.30
2010,01,25,20,50,7.30
2010,01,25,20,51,7.30
2010,01,25,20,52,7.30
2010,01,25,20,53,7.30
2010,01,25,20,54,7.30
2010,01,25,20,55,7.20
2010,01,25,20,56,7.20
2010,01,25,20,57,7.20
2010,01,25,20,58,7.20
2010,01,25,20,59,7.10
2010,01,25,21,00,7.10
2010,01,25,21,01,7.10
2010,01,25,21,02,7.10
2010,01,25,21,03,7.10
2010,01,25,21,04,7.10
2010,01,25,21,05,7.10
2010,01,25,21,06,7.10
2010,01,25,21,07,7.10
2010,01,25,21,08,7.10
2010,01,25,21,09,7.00
2010,01,25,21,10,7.00
2010,01,25,21,11,7.00
2010,01,25,21,12,7.00
2010,01,25,21,13,7.00
2010,01,25,21,14,7.00
2010,01,25,21,15,7.00
2010,01,25,21,16,7.00
2010,01,25,21,17,7.00
2010,01,25,21,18,6.90
2010,01,25,21,19,6.90
2010,01,25,21,20,6.90
2010,01,25,21,21,6.90
2010,01,25,21,22,7.00
2010,01,25,21,23,7.00
2010,01,25,21,24,7.00
2010,01,25,21,25,7.00
2010,01,25,21,26,7.00
2010,01,25,21,27,7.00
2010,01,25,21,28,7.00
2010,01,25,21,29,7.00
2010,01,25,21,30,7.00
2010,01,25,21,31,7.00
2010,01,25,21,32,7.00
2010,01,25,21,33,6.90
2010,01,25,21,34,6.90
2010,01,25,21,35,6.90
2010,01,25,21,36,6.80
2010,01,25,21,37,6.80
2010,01,25,21,38,6.80
2010,01,25,21,39,6.80
2010,01,25,21,40,6.80
2010,01,25,21,41,6.80
2010,01,25,21,42,6.80
2010,01,25,21,43,6.80
2010,01,25,21,44,6.80
2010,01,25,21,45,6.80
2010,01,25,21,46,6.90
2010,01,25,21,47,6.90
2010,01,25,21,48,6.90
2010,01,25,21,49,6.90
2010,01,25,21,50,6.90
2010,01,25,21,51,6.90
2010,01,25,21,52,6.80
2010,01,25,21,53,6.80
2010,01,25,21,54,6.80
2010,01,25,21,55,6.80
2010,01,25,21,56,6.80
2010,01,25,21,57,6.80
2010,01,25,21,58,6.80
2010,01,25,21,59,6.80
2010,01,25,22,00,6.80
2010,01,25,22,01,6.80
2010,01,25,22,02,6.80
2010,01,25,22,03,6.80
2010,01,25,22,04,6.80
2010,01,25,22,05,6.80
2010,01,25,22,06,6.80
2010,01,25,22,07,6.80
2010,01,25,22,08,6.80
2010,01,25,22,09,6.80
2010,01,25,22,10,6.80
2010,01,25,22,11,6.80
2010,01,25,22,12,6.80
2010,01,25,22,13,6.80
2010,01,25,22,14,6.80
2010,01,25,22,15,6.80
2010,01,25,22,16,6.80
2010,01,25,22,17,6.80
2010,01,25,22,18,6.80
2010,01,25,22,19,6.80
2010,01,25,22,20,6.80
2010,01,25,22,21,6.80
2010,01,25,22,22,6.80
2010,01,25,22,23,6.80
2010,01,25,22,24,6.80
2010,01,25,22,25,6.80
2010,01,25,22,26,6.80
2010,01,25,22,27,6.80
2010,01,25,22,28,6.70
2010,01,25,22,29,6.70
2010,01,25,22,30,6.70
2010,01,25,22,31,6.70
2010,01,25,22,32,6.70
2010,01,25,22,33,6.70
2010,01,25,22,34,6.70
2010,01,25,22,35,6.70